• In Uzbekistan
  • List of Countries
  • For 7 days
  • Water Temperature
  • Satellite Maps
  • Weather Map
  • Weather Widgets
  • user-avatar
    Login

    Hourly Weather Wiktoria

    Today, 25 June, Monday

    Time Temperature Precipitation Wind Pressure Humidity
    00:00 +5°C° 0 mm 2 mps 761 mmHg 93%
    01:00 +4°C° 0 mm 2 mps 761 mmHg 93%
    02:00 +4°C° 0 mm 2 mps 761 mmHg 93%
    03:00 +4°C° 0 mm 2 mps 761 mmHg 93%
    04:00 +4°C° 0 mm 2 mps 761 mmHg 93%
    05:00 +4°C° 0 mm 2 mps 761 mmHg 94%
    06:00 +3°C° 0 mm 2 mps 761 mmHg 94%
    07:00 +3°C° 0 mm 2 mps 761 mmHg 94%
    08:00 +5°C° 0 mm 2 mps 762 mmHg 88%
    09:00 +7°C° 0 mm 2 mps 762 mmHg 83%
    10:00 +8°C° 0 mm 2 mps 762 mmHg 77%
    11:00 +10°C° 0 mm 2 mps 762 mmHg 72%
    12:00 +12°C° 0 mm 2 mps 761 mmHg 67%
    13:00 +14°C° 0 mm 2 mps 761 mmHg 62%
    14:00 +14°C° 0 mm 1 mps 761 mmHg 64%
    15:00 +14°C° 0 mm 1 mps 761 mmHg 66%
    16:00 +13°C° 0 mm 1 mps 760 mmHg 68%
    17:00 +12°C° 0 mm 1 mps 761 mmHg 74%
    18:00 +10°C° 0 mm 1 mps 761 mmHg 80%
    19:00 +8°C° 0 mm 1 mps 761 mmHg 86%
    20:00 +8°C° 0 mm 1 mps 761 mmHg 88%
    21:00 +6°C° 0 mm 2 mps 762 mmHg 90%
    22:00 +6°C° 0 mm 2 mps 762 mmHg 91%
    23:00 +5°C° 0 mm 2 mps 762 mmHg 92%

    Tomorrow, 26 June, Tuesday

    Time Temperature Precipitation Wind Pressure Humidity
    00:00 +5°C° 0 mm 2 mps 762 mmHg 92%
    01:00 +5°C° 0 mm 2 mps 762 mmHg 93%
    02:00 +5°C° 0 mm 2 mps 762 mmHg 93%
    03:00 +5°C° 0 mm 1 mps 762 mmHg 93%
    04:00 +5°C° 0 mm 1 mps 762 mmHg 93%
    05:00 +5°C° 0 mm 1 mps 762 mmHg 92%
    06:00 +5°C° 0 mm 1 mps 762 mmHg 92%
    07:00 +3°C° 0 mm 2 mps 762 mmHg 92%
    08:00 +6°C° 0 mm 1 mps 763 mmHg 86%
    09:00 +8°C° 0 mm 1 mps 763 mmHg 79%
    10:00 +9°C° 0 mm 1 mps 763 mmHg 73%
    11:00 +10°C° 0 mm 2 mps 763 mmHg 68%
    12:00 +12°C° 0 mm 2 mps 762 mmHg 63%
    13:00 +13°C° 0 mm 2 mps 762 mmHg 58%
    14:00 +13°C° 0 mm 2 mps 761 mmHg 61%
    15:00 +13°C° 0 mm 1 mps 761 mmHg 65%
    16:00 +13°C° 0 mm 1 mps 761 mmHg 68%
    17:00 +11°C° 0 mm 1 mps 761 mmHg 73%
    18:00 +10°C° 0 mm 1 mps 761 mmHg 77%
    19:00 +8°C° 0 mm 1 mps 761 mmHg 81%
    20:00 +8°C° 0 mm 1 mps 762 mmHg 81%
    21:00 +7°C° 0 mm 2 mps 762 mmHg 81%
    22:00 +7°C° 0 mm 2 mps 762 mmHg 81%
    23:00 +7°C° 0 mm 2 mps 762 mmHg 79%

    Day after tomorrow, 27 June, Wednesday

    Time Temperature Precipitation Wind Pressure Humidity
    00:00 +7°C° 0 mm 2 mps 761 mmHg 78%
    01:00 +7°C° 0 mm 2 mps 761 mmHg 76%
    02:00 +7°C° 0 mm 2 mps 761 mmHg 74%
    03:00 +8°C° 0 mm 1 mps 761 mmHg 73%
    04:00 +8°C° 0 mm 1 mps 761 mmHg 72%
    05:00 +8°C° 0.1 mm 1 mps 761 mmHg 73%
    06:00 +8°C° 0.1 mm 1 mps 761 mmHg 74%
    07:00 +8°C° 0.1 mm 1 mps 761 mmHg 74%
    08:00 +8°C° 0.2 mm 2 mps 761 mmHg 76%
    09:00 +8°C° 0.2 mm 2 mps 761 mmHg 78%
    10:00 +9°C° 0.2 mm 2 mps 761 mmHg 79%
    11:00 +9°C° 0.2 mm 2 mps 760 mmHg 81%
    12:00 +10°C° 0.2 mm 3 mps 760 mmHg 82%
    13:00 +10°C° 0.2 mm 3 mps 759 mmHg 83%
    14:00 +10°C° 0.1 mm 2 mps 759 mmHg 84%
    15:00 +10°C° 0.1 mm 2 mps 759 mmHg 84%
    16:00 +10°C° 0.1 mm 2 mps 758 mmHg 85%
    17:00 +10°C° 0.4 mm 2 mps 758 mmHg 88%
    18:00 +9°C° 0.4 mm 2 mps 758 mmHg 90%
    19:00 +9°C° 0.4 mm 2 mps 758 mmHg 93%
    20:00 +8°C° 0.4 mm 2 mps 758 mmHg 93%
    21:00 +8°C° 0.4 mm 2 mps 758 mmHg 93%
    22:00 +8°C° 0.4 mm 2 mps 758 mmHg 93%
    23:00 +8°C° 1 mm 2 mps 757 mmHg 93%

    28 June, Thursday

    Time Temperature Precipitation Wind Pressure Humidity
    00:00 +8°C° 1 mm 2 mps 757 mmHg 94%
    01:00 +8°C° 1 mm 2 mps 756 mmHg 94%
    02:00 +8°C° 0.8 mm 2 mps 756 mmHg 94%
    03:00 +8°C° 0.8 mm 2 mps 755 mmHg 94%
    04:00 +8°C° 0.8 mm 2 mps 755 mmHg 94%
    05:00 +8°C° 0.2 mm 2 mps 755 mmHg 94%
    06:00 +8°C° 0.2 mm 2 mps 755 mmHg 95%
    07:00 +8°C° 0.2 mm 2 mps 755 mmHg 95%
    08:00 +9°C° 0.1 mm 2 mps 755 mmHg 95%
    09:00 +9°C° 0.1 mm 2 mps 755 mmHg 95%
    10:00 +10°C° 0.1 mm 2 mps 755 mmHg 94%
    11:00 +10°C° 0.1 mm 2 mps 754 mmHg 94%
    12:00 +10°C° 0.1 mm 2 mps 754 mmHg 93%
    13:00 +10°C° 0.1 mm 3 mps 754 mmHg 92%
    14:00 +10°C° 0.1 mm 2 mps 753 mmHg 92%
    15:00 +10°C° 0.1 mm 2 mps 753 mmHg 93%
    16:00 +10°C° 0.1 mm 2 mps 753 mmHg 93%
    17:00 +9°C° 0.1 mm 2 mps 753 mmHg 94%
    18:00 +9°C° 0.1 mm 2 mps 753 mmHg 95%
    19:00 +9°C° 0.1 mm 2 mps 754 mmHg 96%
    20:00 +8°C° 0.1 mm 2 mps 754 mmHg 96%
    21:00 +8°C° 0.1 mm 2 mps 754 mmHg 95%
    22:00 +7°C° 0.1 mm 2 mps 754 mmHg 95%
    23:00 +7°C° 0 mm 2 mps 754 mmHg 95%

    29 June, Friday

    Time Temperature Precipitation Wind Pressure Humidity
    00:00 +8°C° 0 mm 1 mps 753 mmHg 95%
    01:00 +8°C° 0 mm 1 mps 753 mmHg 95%
    02:00 +8°C° 0 mm 1 mps 753 mmHg 95%
    03:00 +7°C° 0 mm 1 mps 753 mmHg 96%
    04:00 +6°C° 0 mm 2 mps 753 mmHg 96%
    05:00 +6°C° 0 mm 2 mps 753 mmHg 96%
    06:00 +5°C° 0 mm 2 mps 754 mmHg 96%
    07:00 +5°C° 0 mm 2 mps 754 mmHg 96%
    08:00 +6°C° 0 mm 2 mps 754 mmHg 93%
    09:00 +7°C° 0 mm 2 mps 754 mmHg 91%
    10:00 +8°C° 0 mm 3 mps 754 mmHg 88%
    11:00 +9°C° 0 mm 3 mps 754 mmHg 82%
    12:00 +11°C° 0 mm 3 mps 754 mmHg 76%
    13:00 +12°C° 0 mm 4 mps 753 mmHg 70%
    14:00 +12°C° 0 mm 3 mps 753 mmHg 70%
    15:00 +12°C° 0 mm 3 mps 753 mmHg 70%
    16:00 +12°C° 0 mm 3 mps 753 mmHg 70%
    17:00 +12°C° 0.1 mm 2 mps 754 mmHg 74%
    18:00 +10°C° 0.1 mm 2 mps 754 mmHg 77%
    19:00 +10°C° 0.1 mm 1 mps 755 mmHg 81%
    20:00 +9°C° 0 mm 1 mps 755 mmHg 84%
    21:00 +8°C° 0 mm 1 mps 755 mmHg 86%
    22:00 +7°C° 0 mm 1 mps 756 mmHg 89%
    23:00 +6°C° 0 mm 1 mps 756 mmHg 90%

    30 June, Saturday

    Time Temperature Precipitation Wind Pressure Humidity
    00:00 +6°C° 0 mm 1 mps 756 mmHg 91%
    01:00 +5°C° 0 mm 1 mps 756 mmHg 92%
    02:00 +5°C° 0 mm 1 mps 756 mmHg 92%
    03:00 +4°C° 0 mm 1 mps 757 mmHg 92%
    04:00 +4°C° 0 mm 1 mps 757 mmHg 92%
    05:00 +3°C° 0 mm 0 mps 757 mmHg 92%
    06:00 +3°C° 0 mm 0 mps 758 mmHg 92%
    07:00 +3°C° 0 mm 0 mps 758 mmHg 92%
    08:00 +4°C° 0 mm 0 mps 759 mmHg 88%
    09:00 +6°C° 0 mm 0 mps 759 mmHg 84%
    10:00 +7°C° 0 mm 0 mps 760 mmHg 80%
    11:00 +10°C° 0 mm 1 mps 759 mmHg 75%
    12:00 +11°C° 0 mm 1 mps 759 mmHg 70%
    13:00 +12°C° 0 mm 1 mps 759 mmHg 65%
    14:00 +12°C° 0 mm 1 mps 759 mmHg 66%
    15:00 +12°C° 0 mm 1 mps 759 mmHg 67%
    16:00 +12°C° 0 mm 1 mps 759 mmHg 68%
    17:00 +10°C° 0 mm 1 mps 760 mmHg 73%
    18:00 +9°C° 0 mm 1 mps 760 mmHg 77%
    19:00 +6°C° 0 mm 0 mps 761 mmHg 82%
    20:00 +7°C° 0 mm 1 mps 761 mmHg 82%
    21:00 +7°C° 0 mm 1 mps 761 mmHg 83%
    22:00 +7°C° 0 mm 1 mps 762 mmHg 83%
    23:00 +7°C° 0 mm 1 mps 762 mmHg 83%
    Show more